Location: Heisede
(52.2582°N, 9.8523°E)
Time: 02:15:26
(UTC+00:00)

Daily predictions for brighter satellites

Satellite Brightness Start Highest point End
(mag) Time Altitude Azimuth Time Altitude Azimuth Time Altitude Azimuth
ATLAS 2AS CENTAUR R/B 3.8 03:19:12 35° NNE 03:19:12 35° NNE 03:25:08 10° E
Cosmos 1844 Rocket 4.3 03:23:00 29° NE 03:23:00 29° NE 03:25:44 10° NNE
CZ-4C R/B 3.8 03:35:32 28° NNE 03:35:32 28° NNE 03:39:33 10° NE
Cosmos 909 Rocket 4.5 03:38:03 57° SE 03:38:03 57° SE 03:43:31 10° SE
Cosmos 2263 Rocket 4.2 03:44:56 17° N 03:44:56 17° N 03:46:37 10° NNE
Cosmos 2082 Rocket 4.1 03:41:39 20° N 03:43:15 22° NE 03:47:37 10° E
Lacrosse 5 rocket 4.0 03:47:44 15° ENE 03:47:44 15° ENE 03:48:27 10° ENE
Cosmos 1745 Rocket 4.1 03:49:18 71° ENE 03:49:18 71° ENE 03:55:05 10° NNE
GEOS 3 Rocket 4.2 03:44:10 10° ESE 03:48:25 55° E 03:48:25 55° E
Cosmos 1833 Rocket 2.9 03:59:25 68° ENE 03:59:25 68° ENE 04:04:44 10° SE
Cosmos 2297 Rocket 4.4 04:05:52 13° N 04:05:52 13° N 04:07:21 10° NNE
COSMO-SKYMED 1 3.9 04:01:06 10° SE 04:04:14 35° E 04:04:14 35° E
Cosmos 1992 Rocket 4.2 04:16:45 58° NNE 04:17:29 66° ENE 04:22:38 10° SE
Cosmos 2344 4.2 04:20:19 35° NNW 04:21:46 38° N 04:29:08 10° ENE
Cosmos 2181 Rocket 4.4 04:15:54 10° N 04:22:13 65° ENE 04:28:35 10° SSE
Cosmos 1844 4.3 04:25:53 41° N 04:25:53 41° N 04:29:59 10° NNE
Sich 1 4.5 04:21:44 10° SSE 04:25:33 35° E 04:29:24 10° NNE
Meteor 1-23 Rocket 4.0 04:25:56 59° NNW 04:27:04 85° W 04:32:39 10° S
USA 307 3.7 04:30:52 43° ENE 04:30:52 43° ENE 04:33:46 10° E
Cosmos 44 4.4 04:31:47 33° N 04:33:25 43° NE 04:38:32 10° ESE
Meteor 1-21 4.0 04:34:04 40° NNW 04:36:10 79° W 04:41:49 10° S
Cosmos 381 Rocket 4.5 04:34:47 10° SSW 04:41:08 88° ESE 04:47:35 10° NNE
ATLAS CENTAUR R/B 2.5 04:44:41 26° NE 04:44:41 26° NE 04:46:52 10° E
Cosmos 614 Rocket 3.7 04:47:35 56° WSW 04:48:32 72° WNW 04:53:36 10° NNE
Cosmos 2084 4.4 04:50:03 21° S 04:52:31 44° SE 04:56:29 10° NE
Okean 2 3.1 04:53:39 68° N 04:54:06 84° E 04:57:56 10° SSE
Cosmos 44 Rocket 4.4 04:54:47 29° NNW 04:54:47 29° NNW 04:58:59 10° NE
IRS-1D 3.5 04:50:48 10° NNE 04:56:08 84° WNW 05:01:28 10° SSW
Cosmos 2227 Rocket 4.2 05:00:01 13° NNW 05:00:20 13° NNW 05:02:45 10° NNE
Cosmos 2074 Rocket 4.4 04:55:26 10° S 05:01:39 66° E 05:07:54 10° NNE
Cosmos 1844 Rocket 3.6 05:04:39 29° NW 05:04:39 29° NW 05:09:26 10° NNE
Cosmos 1515 Rocket 3.7 05:05:57 50° WSW 05:05:57 50° WSW 05:10:01 10° S
ATLAS 2AS CENTAUR R/B 2.8 05:06:38 24° NW 05:10:55 72° NE 05:17:41 10° SE
ARIANE 6 FM1 Upper Stage 3.4 05:12:43 34° SW 05:12:43 34° SW 05:16:03 10° SSE
Nadezhda 3 Rocket 4.1 05:06:32 10° N 05:12:48 79° E 05:19:05 10° SSE
Meteor 1-11 Rocket 4.2 05:13:41 30° WSW 05:15:32 38° WNW 05:20:53 10° N
Meteor 2-13 Rocket 4.4 05:10:07 10° NNW 05:16:13 66° W 05:22:14 10° S
Cosmos 1743 Rocket 4.5 05:12:48 10° S 05:17:06 51° E 05:21:23 10° NNE
COSMOS 2406 4.3 05:13:32 12° NNW 05:18:33 42° NE 05:23:59 10° ESE
Lacrosse 5 rocket 1.6 05:21:15 39° NW 05:21:50 43° N 05:25:28 10° ENE
CZ-4C R/B 3.7 05:20:28 20° NW 05:23:42 32° NNE 05:30:08 10° ENE
BREEZE M DEB (TANK) 3.2 05:23:21 29° SW 05:24:26 37° SSW 05:30:34 10° SE
Cosmos 1709 Rocket 4.4 05:20:31 10° SW 05:26:04 35° WNW 05:31:40 10° N
GEOS 3 Rocket 4.3 05:22:53 10° S 05:27:37 34° WSW 05:29:28 27° W
Cosmos 2263 Rocket 4.1 05:26:35 12° NNW 05:27:39 13° NNW 05:30:13 10° NNE
Cosmos 2082 Rocket 2.3 05:23:29 15° NNW 05:28:17 75° ENE 05:33:58 10° SE
Okean 3 Rocket 3.7 05:26:15 10° SSW 05:30:31 49° WNW 05:34:50 10° N
Cosmos 2278 Rocket 2.8 05:29:01 10° SSW 05:34:33 59° ESE 05:40:07 10° NE
SMAP 3.9 05:30:17 10° NNE 05:34:52 53° E 05:39:25 10° S
Cosmos 2154 Rocket 4.0 05:29:46 10° S 05:36:07 86° W 05:42:27 10° N
NOAA 12 4.4 05:31:33 10° N 05:36:28 42° WNW 05:41:21 10° SW
Helios 1A Rocket 3.0 05:36:00 10° SSW 05:39:07 35° W 05:39:34 33° W
COSMO-SKYMED 1 3.4 05:36:51 10° SSW 05:40:19 26° W 05:40:33 26° W
Okean 3 3.5 05:38:12 18° NNW 05:40:58 46° W 05:44:47 10° SSW
Cosmos 1805 Rocket 3.5 05:36:56 10° SSW 05:41:20 66° WNW 05:45:45 10° N
Cosmos 1295 Rocket 4.5 05:35:21 10° SSW 05:41:39 66° WNW 05:47:56 10° N
Cosmos 1833 Rocket 3.7 05:41:08 23° W 05:42:32 25° WSW 05:47:01 10° SSW
USA 32 4.1 05:38:11 10° S 05:43:25 84° E 05:48:42 10° N
Gblst 52 Del rocket 4.3 05:40:14 23° W 05:43:41 66° SSW 05:49:14 10° ESE
Lacrosse 4 Rocket 4.3 05:41:15 10° SSE 05:44:06 19° ESE 05:46:57 10° ENE
Cosmos 1500 Rocket 3.6 05:46:14 10° SSW 05:50:29 55° WNW 05:54:49 10° N
Cosmos 2297 Rocket 4.3 05:49:02 10° NNW 05:51:22 12° NNE 05:53:42 10° NE
Cosmos 1758 3.0 05:48:52 10° SSW 05:52:36 78° W 05:56:21 10° N
TIMED 4.3 05:48:53 10° SSW 05:53:07 75° WNW 05:57:24 10° NNE
Cosmos 1269 Rocket 4.3 05:49:08 10° SSW 05:54:24 73° ESE 05:59:42 10° NNE
Cosmos 1408 Rocket 3.8 05:52:50 10° SW 05:56:57 42° WNW 06:01:05 10° N
USA 307 2.6 05:55:37 22° WNW 05:58:10 81° NNE 06:02:03 10° ESE
Timation 2 Rocket 4.2 05:51:41 10° SSW 05:58:17 79° ESE 06:04:38 10° NE
NOSS 8 (F) 4.0 05:57:44 22° NW 05:59:28 84° SW 06:02:44 10° SE
SeaSat 1 2.5 05:55:37 10° NNE 06:00:33 84° ESE 06:05:28 10° SSW
Sich 1 3.8 05:59:10 10° SW 06:02:48 28° WNW 06:06:26 10° N
Cosmos 2084 Rocket 3.7 06:02:53 14° NW 06:06:24 61° NE 06:10:35 10° ESE
Cosmos 1943 Rocket 2.1 06:02:11 10° SW 06:07:42 79° WNW 06:13:14 10° NNE
IGS 5A 3.8 06:05:26 10° N 06:09:07 37° WNW 06:12:46 10° SW
Okean 1-7 2.8 06:06:48 10° NNW 06:10:56 75° W 06:15:05 10° S
SJ 16-02 4.0 06:09:15 10° SSE 06:12:37 23° E 06:15:59 10° NE
BREEZE-M DEB (TANK) 3.6 06:12:52 14° WSW 06:14:33 31° SSW 06:16:55 10° SE
Cosmos 44 3.8 06:10:05 13° NW 06:14:44 54° WSW 06:19:58 10° SSE
Cosmos 921 Rocket 3.2 06:12:53 10° SW 06:17:02 45° WNW 06:21:09 10° NNE
AQUARIUS 4.3 06:14:06 10° NNE 06:18:33 79° ESE 06:22:57 10° SSW
ATLAS CENTAUR R/B 1.3 06:16:29 15° WNW 06:18:35 35° SW 06:21:22 10° SSE
ARIANE 5 R/B 2.7 06:13:39 10° NNE 06:18:50 79° ESE 06:23:55 10° SSW
Cosmos 2184 Rocket 4.3 06:13:35 10° SW 06:19:26 42° WNW 06:25:17 10° N
Cosmos 1470 Rocket 4.3 06:15:56 10° S 06:20:08 56° E 06:24:21 10° NNE
Cosmos 1484 Rocket 3.4 06:18:59 10° N 06:21:48 25° WNW 06:24:38 10° WSW
Cosmos 1763 Rocket 3.4 06:17:34 10° NNW 06:22:36 67° WSW 06:27:36 10° SSE
IRS-1C 4.3 06:18:10 10° NNE 06:23:33 82° ESE 06:28:52 10° SSW
Meteor 2-19 Rocket 4.5 06:17:50 10° NNW 06:23:52 64° W 06:29:49 10° S
CORIOLIS 4.2 06:18:30 10° NNE 06:23:55 67° WNW 06:29:18 10° SSW
Meteor 2-10 Rocket 4.0 06:19:16 10° SW 06:23:59 38° WNW 06:28:55 10° N
Meteor 2-5 Rocket 3.9 06:20:03 10° NNW 06:25:53 88° ENE 06:31:48 10° SSE
Cosmos 1140 Rocket 3.4 06:20:56 10° SSW 06:26:01 70° WNW 06:31:11 10° NNE
Cosmos 1862 Rocket 3.8 06:22:55 10° NNW 06:27:06 45° W 06:31:13 10° SSW
Cosmos 2084 3.8 06:27:14 10° WSW 06:31:12 40° NNW 06:35:09 10° NE
CBERS-1 4.3 06:27:45 10° N 06:32:34 43° WNW 06:37:20 10° SW
SL-8 Rocket 4.1 06:27:31 10° S 06:33:51 87° W 06:40:11 10° N
Resurs 01 Rocket 4.0 06:33:04 10° NE 06:36:51 27° E 06:40:36 10° SSE
GRACE-FO 1 4.4 06:33:44 10° S 06:37:10 78° W 06:40:38 10° N
GRACE-FO 2 4.4 06:34:11 10° S 06:37:36 77° W 06:41:04 10° N
Cosmos 2344 4.3 06:30:45 10° NW 06:37:58 51° NNE 06:47:00 10° ESE
MOS 1 Rocket 3.4 06:35:27 10° N 06:39:58 49° WNW 06:44:14 10° SW
Cosmos 2369 Rocket 4.4 06:36:15 10° SSE 06:41:11 31° ESE 06:46:10 10° NE
SL-23 DEB 4.0 06:38:06 10° WSW 06:41:11 60° SSE 06:44:57 10° E
Cosmos 1707 Rocket 4.2 06:39:31 10° NNW 06:43:24 33° W 06:47:16 10° SSW
USA 234 3.6 06:37:31 10° ENE 06:44:06 73° SSE 06:50:40 10° SW
Cosmos 2228 Rocket 3.5 06:40:29 10° NNW 06:44:38 42° W 06:48:44 10° SSW
Meteor 1-24 Rocket 4.0 06:39:36 10° NNW 06:45:33 64° W 06:51:29 10° S
SL-08 R/B 3.5 06:41:56 10° S 06:46:47 66° WSW 06:51:42 10° NNW
Cosmos 864 Rocket 4.5 06:40:48 10° SSW 06:46:55 79° W 06:53:07 10° N
